Location: Lynch Observatory
(39.9540°N, 75.1861°W)
Time: 20:14:20
(UTC-04:00)

CAS-4B - Pass Details

Date: 30 April 2024
Orbit: 474 x 492 km, 43.0° (Epoch: 28 May)

Event Time Altitude Azimuth Distance (km) Brightness Sun altitude
Exits shadow 04:01:36 37° 149° (SSE) 758 ? -20.5°
Drops below altitude 10° 04:04:08 10° 128° (SE) 1,656 ? -20.1°
Enters shadow 05:11:08 -49° 307° (NW) 10,290 ? -9.6°
